Time,TemperatureF,DewpointF,PressureIn,WindDirection,WindDirectionDegrees,WindSpeedMPH,WindSpeedGustMPH,Humidity,HourlyPrecipIn,Conditions,Clouds,dailyrainin,SolarRadiationWatts/m^2,SoftwareType,DateUTC
2013-06-29 00:11:00,43.0,43.0,-100.00,WNW,297,6.0,9.0,99,0.00,,,0.00,8.200000,,2013-06-29 08:11:00,
2013-06-29 00:21:00,43.0,43.0,-100.00,WNW,297,6.0,9.0,99,0.00,,,0.00,8.200000,,2013-06-29 08:21:00,
2013-06-29 00:33:00,43.0,43.0,-100.00,WNW,297,6.0,9.0,99,0.00,,,0.00,8.200000,,2013-06-29 08:33:00,
2013-06-29 01:12:00,42.0,42.0,-100.00,WNW,300,8.0,9.0,99,0.00,,,0.00,0.000000,,2013-06-29 09:12:00,
2013-06-29 01:22:00,42.0,42.0,-100.00,WNW,300,8.0,9.0,99,0.00,,,0.00,0.000000,,2013-06-29 09:22:00,
2013-06-29 01:33:00,42.0,42.0,-100.00,WNW,300,8.0,9.0,99,0.00,,,0.00,0.000000,,2013-06-29 09:33:00,
2013-06-29 01:42:00,42.0,42.0,-100.00,WNW,300,8.0,9.0,99,0.00,,,0.00,0.000000,,2013-06-29 09:42:00,
2013-06-29 02:11:00,42.0,42.0,-100.00,WNW,301,8.0,13.0,99,0.00,,,0.00,0.000000,,2013-06-29 10:11:00,
2013-06-29 02:22:00,42.0,42.0,-100.00,WNW,301,8.0,13.0,99,0.00,,,0.00,0.000000,,2013-06-29 10:22:00,
2013-06-29 02:33:00,42.0,42.0,-100.00,WNW,301,8.0,13.0,99,0.00,,,0.00,0.000000,,2013-06-29 10:33:00,
2013-06-29 02:42:00,42.0,42.0,-100.00,WNW,301,8.0,13.0,99,0.00,,,0.00,0.000000,,2013-06-29 10:42:00,
2013-06-29 02:43:00,42.0,42.0,-100.00,WNW,290,10.0,13.0,99,0.00,,,0.00,0.000000,,2013-06-29 10:43:00,
2013-06-29 03:11:00,42.0,42.0,-100.00,WNW,290,10.0,13.0,99,0.00,,,0.00,0.000000,,2013-06-29 11:11:00,
2013-06-29 03:23:00,42.0,42.0,-100.00,WNW,290,10.0,13.0,99,0.00,,,0.00,0.000000,,2013-06-29 11:23:00,
2013-06-29 03:33:00,42.0,42.0,-100.00,WNW,290,10.0,13.0,99,0.00,,,0.00,0.000000,,2013-06-29 11:33:00,
2013-06-29 03:43:00,42.0,41.0,-100.00,NW,305,10.0,15.0,99,0.00,,,0.00,0.000000,,2013-06-29 11:43:00,
2013-06-29 04:12:00,42.0,41.0,-100.00,NW,305,10.0,15.0,99,0.00,,,0.00,0.000000,,2013-06-29 12:12:00,
2013-06-29 04:22:00,42.0,41.0,-100.00,NW,305,10.0,15.0,99,0.00,,,0.00,0.000000,,2013-06-29 12:22:00,
2013-06-29 04:34:00,42.0,41.0,-100.00,NW,305,10.0,15.0,99,0.00,,,0.00,0.000000,,2013-06-29 12:34:00,
2013-06-29 04:43:00,41.0,41.0,-100.00,NW,304,12.0,14.0,99,0.00,,,0.00,1.000000,,2013-06-29 12:43:00,
2013-06-29 05:11:00,41.0,41.0,-100.00,NW,304,12.0,14.0,99,0.00,,,0.00,1.000000,,2013-06-29 13:11:00,
2013-06-29 05:23:00,41.0,41.0,-100.00,NW,304,12.0,14.0,99,0.00,,,0.00,1.000000,,2013-06-29 13:23:00,
2013-06-29 05:34:00,41.0,41.0,-100.00,NW,304,12.0,14.0,99,0.00,,,0.00,1.000000,,2013-06-29 13:34:00,
2013-06-29 05:43:00,42.0,41.0,-100.00,NW,311,11.0,15.0,99,0.00,,,0.00,9.300000,,2013-06-29 13:43:00,
2013-06-29 06:12:00,42.0,41.0,-100.00,NW,311,11.0,15.0,99,0.00,,,0.00,9.300000,,2013-06-29 14:12:00,
2013-06-29 06:23:00,42.0,41.0,-100.00,NW,311,11.0,15.0,99,0.00,,,0.00,9.300000,,2013-06-29 14:23:00,
2013-06-29 06:33:00,42.0,41.0,-100.00,NW,311,11.0,15.0,99,0.00,,,0.00,9.300000,,2013-06-29 14:33:00,
2013-06-29 07:11:00,42.0,42.0,-100.00,NW,309,11.0,17.0,100,0.00,,,0.00,37.900002,,2013-06-29 15:11:00,
2013-06-29 07:22:00,42.0,42.0,-100.00,NW,309,11.0,17.0,100,0.00,,,0.00,37.900002,,2013-06-29 15:22:00,
2013-06-29 07:33:00,42.0,42.0,-100.00,NW,309,11.0,17.0,100,0.00,,,0.00,37.900002,,2013-06-29 15:33:00,
2013-06-29 07:42:00,42.0,42.0,-100.00,NW,309,11.0,17.0,100,0.00,,,0.00,37.900002,,2013-06-29 15:42:00,
2013-06-29 07:43:00,42.0,42.0,-100.00,NW,309,10.0,16.0,99,0.00,,,0.00,94.599998,,2013-06-29 15:43:00,
2013-06-29 08:12:00,42.0,42.0,-100.00,NW,309,10.0,16.0,99,0.00,,,0.00,94.599998,,2013-06-29 16:12:00,
2013-06-29 08:22:00,42.0,42.0,-100.00,NW,309,10.0,16.0,99,0.00,,,0.00,94.599998,,2013-06-29 16:22:00,
2013-06-29 08:33:00,42.0,42.0,-100.00,NW,309,10.0,16.0,99,0.00,,,0.00,94.599998,,2013-06-29 16:33:00,
2013-06-29 09:12:00,42.0,42.0,-100.00,WNW,298,9.0,13.0,99,0.00,,,0.00,174.800003,,2013-06-29 17:12:00,
2013-06-29 09:22:00,42.0,42.0,-100.00,WNW,298,9.0,13.0,99,0.00,,,0.00,174.800003,,2013-06-29 17:22:00,
2013-06-29 09:33:00,42.0,42.0,-100.00,WNW,298,9.0,13.0,99,0.00,,,0.00,174.800003,,2013-06-29 17:33:00,
2013-06-29 09:42:00,42.0,42.0,-100.00,WNW,298,9.0,13.0,99,0.00,,,0.00,174.800003,,2013-06-29 17:42:00,
2013-06-29 09:43:00,43.0,42.0,-100.00,WNW,302,7.0,13.0,98,0.00,,,0.00,278.700012,,2013-06-29 17:43:00,
2013-06-29 10:11:00,43.0,42.0,-100.00,WNW,302,7.0,13.0,98,0.00,,,0.00,278.700012,,2013-06-29 18:11:00,
2013-06-29 10:22:00,43.0,42.0,-100.00,WNW,302,7.0,13.0,98,0.00,,,0.00,278.700012,,2013-06-29 18:22:00,
2013-06-29 10:33:00,43.0,42.0,-100.00,WNW,302,7.0,13.0,98,0.00,,,0.00,278.700012,,2013-06-29 18:33:00,
2013-06-29 10:43:00,44.0,44.0,-100.00,WNW,288,6.0,12.0,98,0.00,,,0.00,433.000000,,2013-06-29 18:43:00,
2013-06-29 11:12:00,44.0,44.0,-100.00,WNW,288,6.0,12.0,98,0.00,,,0.00,433.000000,,2013-06-29 19:12:00,
2013-06-29 11:22:00,44.0,44.0,-100.00,WNW,288,6.0,12.0,98,0.00,,,0.00,433.000000,,2013-06-29 19:22:00,
2013-06-29 11:34:00,44.0,44.0,-100.00,WNW,288,6.0,12.0,98,0.00,,,0.00,433.000000,,2013-06-29 19:34:00,
2013-06-29 11:43:00,45.0,44.0,-100.00,WNW,286,8.0,10.0,97,0.00,,,0.00,567.400024,,2013-06-29 19:43:00,
2013-06-29 12:11:00,45.0,44.0,-100.00,WNW,286,8.0,10.0,97,0.00,,,0.00,567.400024,,2013-06-29 20:11:00,
2013-06-29 12:23:00,45.0,44.0,-100.00,WNW,286,8.0,10.0,97,0.00,,,0.00,567.400024,,2013-06-29 20:23:00,
2013-06-29 12:33:00,45.0,44.0,-100.00,WNW,286,8.0,10.0,97,0.00,,,0.00,567.400024,,2013-06-29 20:33:00,
2013-06-29 13:01:00,46.0,45.0,-100.00,NW,314,8.0,13.0,97,0.00,,,0.00,604.799988,,2013-06-29 21:01:00,
2013-06-29 13:11:00,46.0,45.0,-100.00,NW,314,8.0,13.0,97,0.00,,,0.00,604.799988,,2013-06-29 21:11:00,
2013-06-29 13:22:00,46.0,45.0,-100.00,NW,314,8.0,13.0,97,0.00,,,0.00,604.799988,,2013-06-29 21:22:00,
2013-06-29 13:32:00,46.0,45.0,-100.00,NW,314,8.0,13.0,97,0.00,,,0.00,604.799988,,2013-06-29 21:32:00,
2013-06-29 13:42:00,46.0,45.0,-100.00,NW,314,8.0,13.0,97,0.00,,,0.00,604.799988,,2013-06-29 21:42:00,
2013-06-29 13:43:00,48.0,47.0,-100.00,NW,319,5.0,13.0,96,0.00,,,0.00,656.599976,,2013-06-29 21:43:00,
2013-06-29 14:11:00,48.0,47.0,-100.00,NW,319,5.0,13.0,96,0.00,,,0.00,656.599976,,2013-06-29 22:11:00,
2013-06-29 14:21:00,48.0,47.0,-100.00,NW,319,5.0,13.0,96,0.00,,,0.00,656.599976,,2013-06-29 22:21:00,
2013-06-29 14:33:00,48.0,47.0,-100.00,NW,319,5.0,13.0,96,0.00,,,0.00,656.599976,,2013-06-29 22:33:00,
2013-06-29 14:43:00,50.0,49.0,-100.00,WNW,303,3.0,10.0,94,0.00,,,0.00,706.000000,,2013-06-29 22:43:00,
2013-06-29 15:12:00,50.0,49.0,-100.00,WNW,303,3.0,10.0,94,0.00,,,0.00,706.000000,,2013-06-29 23:12:00,
2013-06-29 15:23:00,50.0,49.0,-100.00,WNW,303,3.0,10.0,94,0.00,,,0.00,706.000000,,2013-06-29 23:23:00,
2013-06-29 15:33:00,50.0,49.0,-100.00,WNW,303,3.0,10.0,94,0.00,,,0.00,706.000000,,2013-06-29 23:33:00,
2013-06-29 16:02:00,50.0,48.0,-100.00,WNW,291,4.0,7.0,93,0.00,,,0.00,779.200012,,2013-06-30 00:02:00,
2013-06-29 16:11:00,50.0,48.0,-100.00,WNW,291,4.0,7.0,93,0.00,,,0.00,779.200012,,2013-06-30 00:11:00,
2013-06-29 16:22:00,50.0,48.0,-100.00,WNW,291,4.0,7.0,93,0.00,,,0.00,779.200012,,2013-06-30 00:22:00,
2013-06-29 16:33:00,50.0,48.0,-100.00,WNW,291,4.0,7.0,93,0.00,,,0.00,779.200012,,2013-06-30 00:33:00,
2013-06-29 16:42:00,50.0,48.0,-100.00,WNW,291,4.0,7.0,93,0.00,,,0.00,779.200012,,2013-06-30 00:42:00,
2013-06-29 16:43:00,51.0,48.0,-100.00,WNW,293,4.0,6.0,91,0.00,,,0.00,698.700012,,2013-06-30 00:43:00,
2013-06-29 17:11:00,51.0,48.0,-100.00,WNW,293,4.0,6.0,91,0.00,,,0.00,698.700012,,2013-06-30 01:11:00,
2013-06-29 17:22:00,51.0,48.0,-100.00,WNW,293,4.0,6.0,91,0.00,,,0.00,698.700012,,2013-06-30 01:22:00,
2013-06-29 17:33:00,51.0,48.0,-100.00,WNW,293,4.0,6.0,91,0.00,,,0.00,698.700012,,2013-06-30 01:33:00,
2013-06-29 17:43:00,50.0,47.0,-100.00,WNW,297,5.0,7.0,89,0.00,,,0.00,591.400024,,2013-06-30 01:43:00,
2013-06-29 18:11:00,50.0,47.0,-100.00,WNW,297,5.0,7.0,89,0.00,,,0.00,591.400024,,2013-06-30 02:11:00,
2013-06-29 18:23:00,50.0,47.0,-100.00,WNW,297,5.0,7.0,89,0.00,,,0.00,591.400024,,2013-06-30 02:23:00,
2013-06-29 18:33:00,50.0,47.0,-100.00,WNW,297,5.0,7.0,89,0.00,,,0.00,591.400024,,2013-06-30 02:33:00,
2013-06-29 18:43:00,50.0,47.0,-100.00,WNW,299,2.0,7.0,89,0.00,,,0.00,443.100006,,2013-06-30 02:43:00,
2013-06-29 19:11:00,50.0,47.0,-100.00,WNW,299,2.0,7.0,89,0.00,,,0.00,443.100006,,2013-06-30 03:11:00,
2013-06-29 19:23:00,50.0,47.0,-100.00,WNW,299,2.0,7.0,89,0.00,,,0.00,443.100006,,2013-06-30 03:23:00,
2013-06-29 19:33:00,50.0,47.0,-100.00,WNW,299,2.0,7.0,89,0.00,,,0.00,443.100006,,2013-06-30 03:33:00,
2013-06-29 19:43:00,49.0,47.0,-100.00,SE,135,2.0,7.0,91,0.00,,,0.00,292.100006,,2013-06-30 03:43:00,
2013-06-29 20:12:00,49.0,47.0,-100.00,SE,135,2.0,7.0,91,0.00,,,0.00,292.100006,,2013-06-30 04:12:00,
2013-06-29 20:22:00,49.0,47.0,-100.00,SE,135,2.0,7.0,91,0.00,,,0.00,292.100006,,2013-06-30 04:22:00,
2013-06-29 20:33:00,49.0,47.0,-100.00,SE,135,2.0,7.0,91,0.00,,,0.00,292.100006,,2013-06-30 04:33:00,
2013-06-29 20:43:00,46.0,45.0,-100.00,SE,145,3.0,3.0,97,0.00,,,0.00,125.699997,,2013-06-30 04:43:00,
2013-06-29 21:12:00,46.0,45.0,-100.00,SE,145,3.0,3.0,97,0.00,,,0.00,125.699997,,2013-06-30 05:12:00,
2013-06-29 21:22:00,46.0,45.0,-100.00,SE,145,3.0,3.0,97,0.00,,,0.00,125.699997,,2013-06-30 05:22:00,
2013-06-29 21:33:00,46.0,45.0,-100.00,SE,145,3.0,3.0,97,0.00,,,0.00,125.699997,,2013-06-30 05:33:00,
2013-06-29 21:43:00,44.0,44.0,-100.00,SE,142,5.0,5.0,99,0.00,,,0.00,70.800003,,2013-06-30 05:43:00,
2013-06-29 22:12:00,44.0,44.0,-100.00,SE,142,5.0,5.0,99,0.00,,,0.00,70.800003,,2013-06-30 06:12:00,
2013-06-29 22:23:00,44.0,44.0,-100.00,SE,142,5.0,5.0,99,0.00,,,0.00,70.800003,,2013-06-30 06:23:00,
2013-06-29 22:33:00,44.0,44.0,-100.00,SE,142,5.0,5.0,99,0.00,,,0.00,70.800003,,2013-06-30 06:33:00,